Location: Newark
(45.5167°N, 11.1667°E)
Time: 21:21:14
(UTC+00:00)

Tiros 1 despin weight - All Passes

Search period start: 08 December 2019 00:00
Search period end: 18 December 2019 00:00
Orbit: 594 x 642 km, 48.2° (Epoch: 07 December)

Date Brightness Start Highest point End Pass type
(mag) Time Alt. Az. Time Alt. Az. Time Alt. Az.
08 Dec - 04:19:36 10° S 04:23:06 22° SE 04:26:35 10° E visible
08 Dec - 05:59:43 10° WSW 06:04:13 78° SSE 06:08:40 10° ENE visible
08 Dec - 07:41:30 10° W 07:45:55 61° N 07:50:19 10° ENE daylight
08 Dec - 09:23:16 10° WNW 09:27:43 83° NNE 09:32:09 10° ESE daylight
08 Dec - 11:05:04 10° W 11:09:01 32° SW 11:12:56 10° SSE daylight
09 Dec - 04:35:14 10° SW 04:39:25 38° SSE 04:43:34 10° E visible
09 Dec - 06:16:18 10° WSW 06:20:48 78° NNW 06:25:15 10° ENE daylight
09 Dec - 07:58:12 10° WNW 08:02:38 62° N 08:07:01 10° E daylight
09 Dec - 09:39:52 10° WNW 09:44:17 70° SSW 09:48:40 10° ESE daylight
09 Dec - 11:22:12 10° W 11:25:17 19° SW 11:28:21 10° S daylight
10 Dec - 03:12:06 10° S 03:14:54 16° SE 03:17:41 10° E visible
10 Dec - 04:51:23 10° SW 04:55:50 62° SSE 05:00:15 10° ENE visible
10 Dec - 06:32:59 10° W 06:37:28 64° N 06:41:53 10° ENE daylight
10 Dec - 08:14:50 10° WNW 08:19:18 72° NNE 08:23:43 10° E daylight
10 Dec - 09:56:32 10° WNW 10:00:44 43° SSW 10:04:55 10° SE daylight
11 Dec - 03:27:15 10° SSW 03:31:09 28° SE 03:35:00 10° E visible
11 Dec - 05:07:51 10° WSW 05:12:22 89° S 05:16:52 10° ENE visible
11 Dec - 06:49:42 10° W 06:54:10 60° N 06:58:33 10° E daylight
11 Dec - 08:31:26 10° WNW 08:35:54 86° SSW 08:40:20 10° ESE daylight
11 Dec - 10:13:24 10° W 10:17:05 26° SW 10:20:43 10° SSE daylight
12 Dec - 02:05:24 10° SSE 02:06:44 11° SE 02:08:05 10° ESE visible
12 Dec - 03:43:09 10° SW 03:47:31 47° SSE 03:51:49 10° ENE visible
12 Dec - 05:24:30 10° W 05:29:00 71° NNW 05:33:28 10° ENE visible
12 Dec - 07:06:23 10° WNW 07:10:51 65° N 07:15:15 10° E daylight
12 Dec - 08:48:03 10° WNW 08:52:26 58° SSW 08:56:45 10° SE daylight
12 Dec - 10:30:53 10° WSW 10:33:17 14° SW 10:35:41 10° SSW daylight
13 Dec - 02:19:30 10° S 02:22:55 21° SE 02:26:18 10° E visible
13 Dec - 03:59:27 10° WSW 04:03:59 74° SSE 04:08:28 10° ENE visible
13 Dec - 05:41:12 10° W 05:45:41 62° N 05:50:06 10° ENE visible
13 Dec - 07:23:00 10° WNW 07:27:30 80° NNE 07:31:56 10° ESE daylight
13 Dec - 09:04:47 10° W 09:08:50 35° SW 09:12:51 10° SSE daylight
14 Dec - 02:35:03 10° SSW 02:39:13 35° SE 02:43:20 10° E visible
14 Dec - 04:16:00 10° WSW 04:20:34 81° NNW 04:25:03 10° ENE visible
14 Dec - 05:57:54 10° WNW 06:02:23 61° N 06:06:48 10° E visible
14 Dec - 07:39:36 10° WNW 07:44:05 74° SSW 07:48:29 10° ESE daylight
14 Dec - 09:21:50 10° W 09:25:07 20° SW 09:28:22 10° S daylight
15 Dec - 01:12:07 10° S 01:14:43 15° SE 01:17:17 10° E night (unlit)
15 Dec - 02:51:07 10° SW 02:55:37 58° SSE 03:00:04 10° ENE visible
15 Dec - 04:32:41 10° W 04:37:12 66° N 04:41:40 10° ENE visible
15 Dec - 06:14:33 10° WNW 06:19:04 70° NNE 06:23:30 10° E visible
15 Dec - 07:56:15 10° WNW 08:00:33 47° SSW 08:04:47 10° SE daylight
15 Dec - 09:40:10 10° WSW 09:41:16 11° SW 09:42:22 10° SSW daylight
16 Dec - 01:27:06 10° SSW 01:30:56 26° SE 01:34:44 10° E night (unlit)
16 Dec - 03:07:32 10° WSW 03:12:08 85° SSE 03:16:40 10° ENE visible
16 Dec - 04:49:24 10° W 04:53:54 61° N 04:58:20 10° E visible
16 Dec - 06:31:10 10° WNW 06:35:41 90° N 06:40:08 10° ESE daylight
16 Dec - 08:13:04 10° W 08:16:54 28° SW 08:20:40 10° SSE daylight
17 Dec - 00:06:05 10° SE 00:06:33 10° SE 00:07:00 10° SE night (unlit)
17 Dec - 01:42:54 10° SW 01:47:16 44° SSE 01:51:36 10° ENE night (unlit)
17 Dec - 03:24:10 10° W 03:28:44 73° NNW 03:33:15 10° ENE visible
17 Dec - 05:06:05 10° WNW 05:10:36 64° N 05:15:02 10° E visible
17 Dec - 06:47:46 10° WNW 06:52:13 62° SSW 06:56:36 10° SE daylight
17 Dec - 08:30:24 10° W 08:33:07 16° SW 08:35:49 10° S daylight
